Weather History for KHSP - September, 2012

Change the Weather History Date:

Tuesday, September 18, 2012

  Actual Average Record
Temperature  
Mean Temperature 56 °F -  
Max Temperature 62 °F 66 °F 78 °F (1998)
Min Temperature 48 °F 52 °F 44 °F (2011)
Degree Days  
Heating Degree Days 9    
Growing Degree Days 6 (Base 50)    
Moisture  
Dew Point 58 °F    
Average Humidity 100    
Maximum Humidity 100    
Minimum Humidity 100    
Precipitation  
Precipitation 2.91 in - - ()
Sea Level Pressure  
Sea Level Pressure 29.87 in    
Wind  
Wind Speed 13 mph (WSW)    
Max Wind Speed 22 mph    
Max Gust Speed 32 mph    
Visibility 1 miles    
Events Rain    
Averages and records for this station are not official NWS values.
T = Trace of Precipitation, MM = Missing Value Source: NWS Daily Summary

Daily Weather History Graph

Daily Weather History Graph

Search for Another Location

Airport or City:

Trip Planner

Search our weather history database for the weather conditions in past years. The results will help you decide how hot, cold, wet, or windy it might be!

Date:

Astronomy

Sep. 18, 2012 Rise Set
Actual Time 7:04 AM EDT 7:21 PM EDT
Civil Twilight 6:37 AM EDT 7:48 PM EDT
Nautical Twilight 6:06 AM EDT 8:18 PM EDT
Astronomical Twilight 5:35 AM EDT 8:50 PM EDT
Moon 9:57 AM EDT (9/18) 8:48 PM EDT (9/18)
Length of Visible Light 13h 10m
Length of Day
12h 17m
Waxing Crescent, 9% of the Moon is Illuminated
Sep 18
Waxing Crescent
Sep 22
First Quarter
Sep 29
Full
Oct 8
Last Quarter
Oct 15
New

Hourly Weather History & Observations

Time (EDT) Temp. Dew Point Humidity Pressure Visibility Wind Dir Wind Speed Gust Speed Precip Events Conditions
12:17 AM 57.2 °F 57.2 °F 100% 30.02 in 0.2 mi SE 8.1 mph - 0.07 in Rain Rain
12:37 AM 59.0 °F 59.0 °F 100% 30.01 in 0.2 mi SE 10.4 mph - 0.12 in Rain Rain
12:57 AM 59.0 °F 59.0 °F 100% 30.00 in 0.2 mi SE 11.5 mph 17.3 mph 0.04 in Rain Heavy Rain
1:17 AM 59.0 °F 59.0 °F 100% 29.99 in 0.2 mi SE 10.4 mph 16.1 mph 0.17 in Rain Heavy Rain
1:37 AM 59.0 °F 59.0 °F 100% 29.98 in 0.2 mi SE 8.1 mph - 0.32 in Rain Heavy Rain
1:57 AM 59.0 °F 59.0 °F 100% 29.97 in 0.2 mi SE 8.1 mph 23.0 mph 0.06 in Rain Heavy Rain
2:17 AM 59.0 °F 59.0 °F 100% 29.95 in 0.2 mi SE 9.2 mph - 0.20 in Rain Heavy Rain
2:37 AM 60.8 °F 60.8 °F 100% 29.93 in 0.2 mi ESE 11.5 mph 19.6 mph 0.34 in Rain Heavy Rain
2:57 AM 60.8 °F 60.8 °F 100% 29.94 in 0.2 mi South 10.4 mph 17.3 mph 0.10 in Rain Light Rain
3:37 AM 60.8 °F 60.8 °F 100% 29.92 in 0.2 mi South 12.7 mph 23.0 mph 0.18 in Rain Rain
3:57 AM 60.8 °F 60.8 °F 100% 29.91 in 0.2 mi South 11.5 mph 24.2 mph 0.01 in Rain Rain
4:17 AM 60.8 °F 60.8 °F 100% 29.89 in 0.2 mi South 12.7 mph 29.9 mph 0.07 in Rain Rain
4:39 AM 60.8 °F 60.8 °F 100% 29.89 in 0.2 mi South 11.5 mph 16.1 mph 0.14 in Rain Heavy Rain
4:57 AM 60.8 °F 60.8 °F 100% 29.87 in 0.2 mi SSE 16.1 mph 27.6 mph 0.09 in Rain Heavy Rain
5:17 AM 60.8 °F 60.8 °F 100% 29.85 in 0.2 mi South 15.0 mph 23.0 mph 0.19 in Rain Heavy Rain
5:57 AM 60.8 °F 60.8 °F 100% 29.83 in 0.2 mi South 12.7 mph 24.2 mph 0.05 in Rain Heavy Rain
6:17 AM 62.6 °F 62.6 °F 100% 29.82 in 0.2 mi SSE 17.3 mph 25.3 mph 0.17 in Rain Heavy Rain
6:38 AM 62.6 °F 62.6 °F 100% 29.81 in 0.2 mi SSE 15.0 mph 23.0 mph 0.28 in Rain Rain
6:57 AM 62.6 °F 62.6 °F 100% 29.79 in 0.2 mi SSE 12.7 mph 26.5 mph 0.05 in Rain Rain
7:17 AM 62.6 °F 62.6 °F 100% 29.79 in 0.2 mi SSE 15.0 mph 26.5 mph 0.15 in Rain Heavy Rain
7:37 AM 62.6 °F 62.6 °F 100% 29.78 in 0.2 mi South 15.0 mph 25.3 mph 0.30 in Rain Heavy Rain
7:57 AM 62.6 °F 62.6 °F 100% 29.79 in 0.2 mi South 19.6 mph 29.9 mph 0.08 in Rain Heavy Rain
8:17 AM 62.6 °F 62.6 °F 100% 29.79 in 0.2 mi South 13.8 mph 29.9 mph 0.13 in Rain Rain
8:37 AM 62.6 °F 62.6 °F 100% 29.80 in 4.0 mi SW 18.4 mph 31.1 mph 0.27 in Rain Rain
8:57 AM 62.6 °F 62.6 °F 100% 29.80 in 5.0 mi SSW 17.3 mph 25.3 mph N/A Rain Rain
9:17 AM 62.6 °F 62.6 °F 100% 29.79 in 0.2 mi SSW 12.7 mph 23.0 mph N/A   Drizzle
9:37 AM 60.8 °F 60.8 °F 100% 29.81 in 0.2 mi West 13.8 mph - 0.26 in Rain Rain
9:57 AM 60.8 °F 60.8 °F 100% 29.82 in 0.2 mi West 13.8 mph - 0.01 in Rain Light Rain
10:17 AM 60.8 °F 60.8 °F 100% 29.82 in 0.2 mi West 11.5 mph - 0.03 in Rain Rain
10:37 AM 60.8 °F 60.8 °F 100% 29.82 in 0.5 mi West 15.0 mph 20.7 mph 0.10 in Rain Light Rain
10:57 AM 59.0 °F 59.0 °F 100% 29.81 in 0.2 mi West 18.4 mph - 0.03 in Rain Rain
11:17 AM 60.8 °F 60.8 °F 100% 29.81 in 0.2 mi West 19.6 mph - 0.06 in Rain Light Rain
11:38 AM 60.8 °F 60.8 °F 100% 29.79 in 0.2 mi West 21.9 mph 25.3 mph 0.08 in Rain Rain
11:58 AM 59.0 °F 59.0 °F 100% 29.79 in 0.2 mi West 11.5 mph 20.7 mph N/A Rain Light Rain
12:18 PM 59.0 °F 59.0 °F 100% 29.79 in 0.2 mi West 16.1 mph 21.9 mph N/A Rain Light Rain
12:38 PM 59.0 °F 59.0 °F 100% 29.82 in 0.2 mi West 13.8 mph 21.9 mph 0.03 in Rain Light Rain
12:58 PM 59.0 °F 59.0 °F 100% 29.82 in 0.2 mi West 16.1 mph 21.9 mph 0.05 in Rain Rain
1:17 PM 59.0 °F 59.0 °F 100% 29.81 in 0.2 mi West 16.1 mph 28.8 mph 0.10 in Rain Rain
1:38 PM 59.0 °F 59.0 °F 100% 29.83 in 0.2 mi West 16.1 mph 24.2 mph 0.16 in Rain Rain
1:58 PM 57.2 °F 57.2 °F 100% 29.82 in 0.2 mi West 16.1 mph 21.9 mph 0.02 in Rain Rain
2:18 PM 57.2 °F 57.2 °F 100% 29.81 in 0.2 mi West 12.7 mph - 0.05 in Rain Light Rain
2:38 PM 57.2 °F 57.2 °F 100% 29.82 in 0.2 mi West 12.7 mph 18.4 mph 0.10 in Rain Rain
3:18 PM 57.2 °F 57.2 °F 100% 29.82 in 0.2 mi West 15.0 mph 20.7 mph 0.07 in Rain Light Rain
3:38 PM 57.2 °F 57.2 °F 100% 29.81 in 0.2 mi West 15.0 mph 20.7 mph 0.07 in Rain Light Rain
3:57 PM 57.2 °F 57.2 °F 100% 29.80 in 0.2 mi West 13.8 mph - N/A Rain Light Rain
4:18 PM 57.2 °F 57.2 °F 100% 29.81 in 0.8 mi West 13.8 mph - N/A Rain Light Rain
4:38 PM 57.2 °F 57.2 °F 100% 29.81 in 0.2 mi West 12.7 mph 24.2 mph N/A Rain Light Rain
4:58 PM 57.2 °F 57.2 °F 100% 29.82 in 0.2 mi West 17.3 mph 24.2 mph N/A Rain Light Rain
5:18 PM 57.2 °F 57.2 °F 100% 29.83 in 0.2 mi West 16.1 mph 21.9 mph N/A Rain Light Rain
5:38 PM 57.2 °F 57.2 °F 100% 29.85 in 0.2 mi West 13.8 mph - N/A Rain Light Rain
5:58 PM 59.0 °F 59.0 °F 100% 29.86 in 5.0 mi WSW 13.8 mph - N/A   Overcast
6:18 PM 57.2 °F 57.2 °F 100% 29.87 in 1.0 mi WSW 13.8 mph - N/A   Overcast
6:38 PM 57.2 °F 57.2 °F 100% 29.86 in 0.2 mi West 13.8 mph - N/A Rain Light Rain
6:58 PM 57.2 °F 57.2 °F 100% 29.87 in 0.2 mi West 11.5 mph 19.6 mph N/A Rain Light Rain
7:18 PM 57.2 °F 57.2 °F 100% 29.86 in 0.2 mi West 12.7 mph - 0.01 in Rain Light Rain
7:38 PM 57.2 °F 57.2 °F 100% 29.87 in 0.2 mi West 11.5 mph - 0.01 in Rain Light Rain
7:58 PM 57.2 °F 57.2 °F 100% 29.88 in 0.2 mi West 10.4 mph - N/A Rain Light Rain
8:18 PM 57.2 °F 57.2 °F 100% 29.89 in 0.8 mi West 12.7 mph - N/A   Overcast
8:38 PM 57.2 °F 57.2 °F 100% 29.90 in 0.2 mi West 13.8 mph 19.6 mph N/A Rain Light Rain
8:58 PM 55.4 °F 55.4 °F 100% 29.91 in 1.2 mi NW 12.7 mph 23.0 mph N/A Rain Light Rain
9:18 PM 53.6 °F 53.6 °F 100% 29.92 in 0.5 mi NW 12.7 mph 26.5 mph 0.01 in Rain Light Rain
9:38 PM 53.6 °F 53.6 °F 100% 29.93 in 7.0 mi WNW 18.4 mph 28.8 mph 0.02 in Rain Rain
9:58 PM 51.8 °F 51.8 °F 100% 29.94 in 1.5 mi WNW 15.0 mph 24.2 mph N/A Rain Light Rain
10:18 PM 51.8 °F 51.8 °F 100% 29.95 in 10.0 mi WNW 21.9 mph 32.2 mph N/A Rain Light Rain
10:38 PM 51.8 °F 51.8 °F 100% 29.96 in 10.0 mi NW 17.3 mph 21.9 mph N/A Rain Light Rain
11:18 PM 50.0 °F 50.0 °F 100% 29.97 in 10.0 mi WNW 13.8 mph 23.0 mph N/A   Overcast
11:38 PM 50.0 °F 50.0 °F 100% 29.97 in 10.0 mi WNW 12.7 mph 23.0 mph N/A   Mostly Cloudy
11:58 PM 48.2 °F 48.2 °F 100% 29.98 in 10.0 mi NW 11.5 mph 23.0 mph N/A   Scattered Clouds